Location: Sungai Bunut
(2.6333°N, 113.7333°E)
Time: 08:50:39
(UTC+00:00)

Vanguard 3 - Pass Details

Date: 08 December 2023
Orbit: 508 x 3239 km, 33.3° (Epoch: 21 February)

Event Time Altitude Azimuth Distance (km) Brightness Sun altitude
Rises 20:11:32 0° 322° (NW) 2,923 - -29.8°
Reaches altitude 10° 20:14:21 10° 336° (NNW) 1,830 - -29.2°
Maximum altitude 20:17:35 24° 32° (NNE) 1,075 - -28.4°
Exits shadow 20:18:48 20° 63° (ENE) 1,195 8.4 -28.2°
Drops below altitude 10° 20:20:38 10° 89° (E) 1,724 9.6 -27.8°
Sets 20:23:11 0° 104° (ESE) 2,709 11.1 -27.2°
